SES-21

operational
NORAD ID: 53961 Int'l Des: 2022-123 Owner: SESSAP Country: US
HEOCIRCULARGSOGEO

SES-21について

説明を読み込み中...

リアルタイム位置

3D地球を読み込み中...

次回通過

高度履歴

Altitude vs Time

uPlot chart will show altitude changes over time

軌道要素

1 53961U 22123B 26062.15947694 .00000054 00000-0 00000+0 0 9993
2 53961 0.0277 64.1006 0000991 277.6436 105.5920 1.00271093 6149
Epoch: Mar 3, 2026 • Age: 41 hours

現在のステータス

高度 35783.9 km
速度 3.07 km/s
衛星直下点 -0.00°S, 131°W
打ち上げ日 Oct 4, 2022
運用期間 3.4 years
タイプ communications

技術仕様

分類 Payload
質量 1768.00 kg
乾燥質量 1638.00 kg
総質量 1768.00 kg
長さ 5.00 m
直径 3.50 m
スパン 30.00 m
形状 Box + 2 Pan
製造者 BOES
バスタイプ BSS-702SP
フェーズステータス In Orbit
所有者/国 SESSAP/US

大規模コンステレーション

Loading constellations...